[[{"header":{"parameterUnit":"m.s-1","parameterCategory":2,"la1":30.2992,"la2":30.254,"lo1":-89.0895,"lo2":-89.0443,"dy":0.0025,"dx":0.0025,"nx":19,"ny":19,"refTime":"2026-03-29T09:00:00:Z","depth":"0","parameterNumber":2,"parameterNumberName":"U-component_of_CURRENTS"},"data":[0,0,0,0.2341,0.2342,0.2355,0.2355,0.235,0.235,0,0,0,0,0,0,0,0,0,0,0,0.2333,0.2333,0.2341,0.2342,0.2355,0.2355,0.235,0.235,0,0,0,0,0,0,0,0,0,0,0,0.2333,0.2333,0.2334,0.2342,0.2355,0.2355,0.235,0.2342,0,0,0,0,0,0,0,0,0,0,0.2331,0.2326,0.2333,0.2334,0.2342,0.2356,0.2355,0.2342,0.2343,0.2342,0,0.2352,0,0.2359,0.2351,0.2351,0,0,0,0.2329,0.2325,0.2338,0.2334,0.2343,0.2356,0.2346,0.2342,0.2343,0.2343,0.2352,0.2353,0.2359,0.2351,0.2351,0.2405,0.2405,0,0,0.2328,0.2324,0.2337,0.2339,0.2357,0.2345,0.2346,0.2343,0.2343,0.2352,0.2353,0.2358,0.2351,0.2351,0.2404,0.2405,0,0,0,0.2335,0.2324,0.2336,0.2339,0.2347,0.2346,0.2347,0.2343,0.235,0.2353,0.2358,0.2351,0.2351,0.2403,0.2404,0.2413,0,0,0,0.2334,0.2329,0.2336,0.2332,0.2348,0.2348,0.2347,0.235,0.235,0.2358,0.2351,0.2351,0.2403,0.2404,0.2412,0.2443,0,0,0,0.2331,0.2328,0.2335,0.2333,0.2346,0.2348,0.2354,0.235,0.2354,0.2351,0.2351,0.2402,0.2404,0.241,0.244,0.2487,0,0,0,0.2318,0.2333,0.2335,0.2354,0.2346,0.2371,0.2354,0.2359,0.2357,0.2351,0.2403,0.2404,0.241,0.2438,0.2485,0.2488,0.2499,0,0,0.233,0.2334,0.2346,0.2349,0.2372,0.2368,0.2389,0.2374,0.2379,0.2398,0.24,0.2412,0.244,0.2487,0.2564,0.2572,0,0,0,0.2345,0.2346,0.2356,0.2369,0.2392,0.2403,0.2395,0.2405,0.2422,0.2389,0.2437,0.2455,0.2483,0.2481,0.2488,0.2507,0.241,0.241,0.241,0.2316,0.2339,0.235,0.2374,0.2398,0.2423,0.2444,0.2459,0.2445,0.2465,0.2479,0.2548,0.2545,0.255,0.2569,0.2484,0.2484,0.2484,0.2484,0.2302,0.2289,0.2336,0.2355,0.2391,0.2415,0.2477,0.2484,0.255,0.2521,0.2547,0.2512,0.2559,0.2576,0.2485,0.2485,0.2485,0.2485,0.2485,0.2247,0.2242,0.2273,0.2297,0.2338,0.2392,0.2458,0.2514,0.2576,0.2611,0.2624,0.2624,0.2627,0.2622,0.2623,0.2623,0.2623,0.2624,0.2624,0.2159,0.2192,0.2185,0.2223,0.2241,0.2307,0.2443,0.2524,0.2634,0.2668,0.2668,0.2664,0.2591,0.2571,0.2629,0.2628,0.2628,0.2627,0.2627,0.2056,0.2076,0.2062,0.2074,0.2128,0.2146,0.2331,0.2519,0.2637,0.2695,0.2755,0.27,0.2708,0.2701,0.2686,0.2771,0.2771,0.2771,0.2771,0.1967,0.198,0.1949,0.1948,0.1984,0.2067,0.2161,0.2375,0.2646,0.2757,0.2825,0.2778,0.2771,0.278,0.2772,0.2757,0.2858,0.2859,0.2859,0.1886,0.1897,0.184,0.1858,0.1898,0.1972,0.1995,0.2154,0.2597,0.2864,0.2855,0.2851,0.2781,0.2769,0.2777,0.2765,0.2737,0,0]},{"header":{"parameterUnit":"m.s-1","parameterCategory":2,"la1":30.2992,"la2":30.254,"lo1":-89.0895,"lo2":-89.0443,"dy":0.0025,"dx":0.0025,"nx":19,"ny":19,"refTime":"2026-03-29T09:00:00:Z","depth":"0","parameterNumber":3,"parameterNumberName":"V-component_of_CURRENTS"},"data":[0,0,0,-0.0173,-0.0174,-0.0218,-0.0219,-0.0275,-0.0275,0,0,0,0,0,0,0,0,0,0,0,-0.0157,-0.0157,-0.0173,-0.0174,-0.0218,-0.0219,-0.0275,-0.0275,0,0,0,0,0,0,0,0,0,0,0,-0.0157,-0.0157,-0.0157,-0.0174,-0.0218,-0.0219,-0.0275,-0.0243,0,0,0,0,0,0,0,0,0,0,-0.0201,-0.0178,-0.0157,-0.0157,-0.0174,-0.0218,-0.0219,-0.0242,-0.0245,-0.0252,0,-0.0254,0,-0.0263,-0.0278,-0.0278,0,0,0,-0.0181,-0.0175,-0.0191,-0.0157,-0.0175,-0.0218,-0.02,-0.0244,-0.0247,-0.0257,-0.0255,-0.0257,-0.0264,-0.0279,-0.0279,-0.0266,-0.0265,0,0,-0.0179,-0.0164,-0.0188,-0.0193,-0.018,-0.0199,-0.0202,-0.0246,-0.0245,-0.0255,-0.0259,-0.0265,-0.0279,-0.0279,-0.0266,-0.0266,0,0,0,-0.0167,-0.0162,-0.0177,-0.0191,-0.0197,-0.02,-0.0203,-0.0243,-0.0249,-0.0259,-0.0266,-0.0279,-0.028,-0.0267,-0.0266,-0.0191,0,0,0,-0.0166,-0.0155,-0.0175,-0.0167,-0.0196,-0.0219,-0.0199,-0.0246,-0.0251,-0.0265,-0.0279,-0.028,-0.0267,-0.0266,-0.0194,-0.0144,0,0,0,-0.0156,-0.0154,-0.0158,-0.0166,-0.0182,-0.0219,-0.0228,-0.0247,-0.0255,-0.0278,-0.028,-0.0268,-0.0267,-0.0197,-0.015,-0.0103,0,0,0,-0.0142,-0.0129,-0.0157,-0.0145,-0.0182,-0.0178,-0.0228,-0.0237,-0.0252,-0.0279,-0.0267,-0.0266,-0.0198,-0.0153,-0.0106,-0.0011,0.0013,0,0,-0.0115,-0.0125,-0.0118,-0.0144,-0.0123,-0.0173,-0.0146,-0.0195,-0.0236,-0.0256,-0.0255,-0.0193,-0.015,-0.0103,0.0055,0.0078,0,0,0,-0.0103,-0.0092,-0.0093,-0.0088,-0.0102,-0.0094,-0.0139,-0.0158,-0.018,-0.0239,-0.0191,-0.0165,-0.0139,-0.0089,-0.0071,-0.0142,-0.0261,-0.0261,-0.0261,-0.0031,-0.0044,-0.0013,-0.002,-0.0018,-0.004,-0.0039,-0.007,-0.0125,-0.012,-0.0103,-0.0012,0.0042,0.0056,-0.0018,-0.0112,-0.0111,-0.0111,-0.0111,0.0037,0.0063,0.0055,0.0079,0.0078,0.0094,0.0067,0.0032,0.0037,-0.0027,-0.0006,-0.001,0.008,-0.0006,-0.0106,-0.0107,-0.0108,-0.0108,-0.0108,0.0101,0.0114,0.0123,0.0162,0.0195,0.0177,0.0239,0.0185,0.0121,0.0141,0.0178,0.0177,0.01,0.0144,0.0145,0.0145,0.0146,0.0146,0.0146,0.0164,0.0175,0.0218,0.0244,0.0281,0.0328,0.0336,0.0358,0.0339,0.0286,0.0286,0.0137,0.0066,0.0054,0.0153,0.0152,0.0151,0.015,0.015,0.0241,0.0238,0.0306,0.0347,0.043,0.0531,0.0536,0.06,0.0582,0.0591,0.0366,0.0356,0.0344,0.0329,0.0324,0.0487,0.0487,0.0487,0.0487,0.0294,0.0295,0.039,0.0466,0.0566,0.0627,0.0812,0.0848,0.0687,0.0582,0.0463,0.0409,0.0398,0.0383,0.0367,0.036,0.0528,0.0527,0.0527,0.035,0.0369,0.0448,0.0508,0.062,0.0755,0.094,0.1059,0.0785,0.0515,0.0346,0.0345,0.0244,0.0234,0.0186,0.017,0.0149,0,0]}],[{"header":{"parameterUnit":"m.s-1","parameterCategory":2,"la1":30.2992,"la2":30.254,"lo1":-89.0895,"lo2":-89.0443,"dy":0.0025,"dx":0.0025,"nx":19,"ny":19,"refTime":"2026-03-29T09:00:00:Z","depth":"2","parameterNumber":2,"parameterNumberName":"U-component_of_CURRENTS"},"data":[0,0,0,0.2375,0.2376,0.2393,0.2393,0.2395,0.2395,0,0,0,0,0,0,0,0,0,0,0,0.2373,0.2374,0.2375,0.2376,0.2393,0.2393,0.2395,0.2395,0,0,0,0,0,0,0,0,0,0,0,0.2373,0.2374,0.2374,0.2376,0.2393,0.2393,0.2395,0.2385,0,0,0,0,0,0,0,0,0,0,0.237,0.2368,0.2373,0.2374,0.2377,0.2393,0.2393,0.2384,0.2386,0.2386,0,0.2401,0,0.2402,0.2396,0.2396,0,0,0,0.2366,0.2367,0.238,0.2374,0.2377,0.2393,0.2382,0.2385,0.2386,0.2387,0.2401,0.2401,0.2402,0.2396,0.2396,0.2452,0.2453,0,0,0.2365,0.2364,0.2379,0.2381,0.2397,0.2382,0.2383,0.2386,0.2388,0.2401,0.2401,0.2402,0.2396,0.2396,0.2452,0.2452,0,0,0,0.2369,0.2364,0.2376,0.2381,0.2388,0.2383,0.2384,0.2388,0.2396,0.2401,0.2402,0.2396,0.2397,0.2451,0.2452,0.246,0,0,0,0.2368,0.2367,0.2376,0.2374,0.2388,0.2389,0.2386,0.2395,0.2396,0.2402,0.2396,0.2397,0.2451,0.2452,0.2458,0.2488,0,0,0,0.237,0.2367,0.2376,0.2375,0.2387,0.2389,0.2396,0.2395,0.2396,0.2396,0.2397,0.245,0.2451,0.2457,0.2485,0.2532,0,0,0,0.2358,0.2377,0.2376,0.2398,0.2387,0.2412,0.2396,0.2402,0.2404,0.2396,0.2451,0.2452,0.2457,0.2484,0.2529,0.2514,0.2523,0,0,0.2374,0.2379,0.2392,0.2392,0.2415,0.2408,0.2428,0.2418,0.2425,0.2445,0.2446,0.2459,0.2485,0.2531,0.2587,0.2594,0,0,0,0.2392,0.2394,0.2405,0.2417,0.2438,0.2446,0.2438,0.2448,0.2467,0.2435,0.2483,0.25,0.2528,0.2515,0.2521,0.2458,0.2458,0.2458,0.2457,0.2367,0.2389,0.24,0.2422,0.2445,0.2467,0.2487,0.2502,0.249,0.2509,0.2522,0.2589,0.2575,0.2579,0.2527,0.2528,0.2528,0.2528,0.2528,0.2354,0.234,0.2384,0.2403,0.2436,0.2458,0.2518,0.2526,0.2591,0.2563,0.2589,0.2544,0.2585,0.2529,0.2529,0.2528,0.2528,0.2528,0.2528,0.2296,0.2291,0.2322,0.2344,0.2382,0.2434,0.2499,0.2554,0.2615,0.265,0.2651,0.265,0.2602,0.2661,0.2661,0.2661,0.2662,0.2662,0.2662,0.2207,0.224,0.2232,0.2269,0.2287,0.2351,0.2483,0.2562,0.2663,0.2691,0.2691,0.2635,0.2631,0.2612,0.2667,0.2666,0.2666,0.2665,0.2665,0.2104,0.2124,0.211,0.2122,0.2175,0.2184,0.2368,0.2542,0.2658,0.2708,0.2717,0.2714,0.272,0.2715,0.2699,0.2775,0.2775,0.2775,0.2775,0.2015,0.2028,0.1997,0.1997,0.2032,0.2103,0.2164,0.2288,0.2489,0.2546,0.2555,0.2482,0.2485,0.2473,0.2473,0.245,0.2461,0.246,0.2459,0.1935,0.1945,0.1889,0.1907,0.1947,0.2001,0.1964,0.1949,0.2169,0.2437,0.2397,0.2774,0.269,0.2685,0.2684,0.2678,0.2648,0,0]},{"header":{"parameterUnit":"m.s-1","parameterCategory":2,"la1":30.2992,"la2":30.254,"lo1":-89.0895,"lo2":-89.0443,"dy":0.0025,"dx":0.0025,"nx":19,"ny":19,"refTime":"2026-03-29T09:00:00:Z","depth":"2","parameterNumber":3,"parameterNumberName":"V-component_of_CURRENTS"},"data":[0,0,0,-0.0153,-0.0154,-0.0203,-0.0203,-0.0261,-0.0261,0,0,0,0,0,0,0,0,0,0,0,-0.0139,-0.014,-0.0153,-0.0154,-0.0203,-0.0203,-0.0261,-0.0261,0,0,0,0,0,0,0,0,0,0,0,-0.0139,-0.0139,-0.014,-0.0154,-0.0203,-0.0203,-0.0261,-0.0227,0,0,0,0,0,0,0,0,0,0,-0.0181,-0.0161,-0.0139,-0.014,-0.0155,-0.0203,-0.0203,-0.0225,-0.0229,-0.0235,0,-0.024,0,-0.0247,-0.0264,-0.0264,0,0,0,-0.0162,-0.0158,-0.0174,-0.014,-0.0155,-0.0203,-0.0183,-0.0227,-0.0231,-0.0239,-0.0241,-0.0243,-0.0248,-0.0264,-0.0265,-0.0251,-0.0251,0,0,-0.0159,-0.0147,-0.0171,-0.0176,-0.0165,-0.0182,-0.0185,-0.023,-0.0231,-0.0241,-0.0245,-0.0249,-0.0265,-0.0265,-0.0252,-0.0251,0,0,0,-0.0146,-0.0145,-0.016,-0.0174,-0.0181,-0.0183,-0.0186,-0.0229,-0.0235,-0.0245,-0.025,-0.0265,-0.0266,-0.0252,-0.0252,-0.018,0,0,0,-0.0145,-0.0137,-0.0159,-0.0151,-0.018,-0.0205,-0.0184,-0.0232,-0.0237,-0.025,-0.0265,-0.0266,-0.0253,-0.0252,-0.0183,-0.0134,0,0,0,-0.0137,-0.0136,-0.0141,-0.0151,-0.0168,-0.0204,-0.0213,-0.0234,-0.024,-0.0264,-0.0266,-0.0253,-0.0252,-0.0186,-0.0139,-0.0093,0,0,0,-0.0124,-0.0114,-0.0141,-0.0132,-0.0168,-0.0164,-0.0213,-0.0223,-0.0239,-0.0265,-0.0253,-0.0252,-0.0187,-0.0142,-0.0096,-0.0013,0.001,0,0,-0.0099,-0.0111,-0.0104,-0.0129,-0.0108,-0.0158,-0.0132,-0.0182,-0.0223,-0.0241,-0.0241,-0.0182,-0.0139,-0.0094,0.0053,0.0074,0,0,0,-0.0088,-0.0079,-0.008,-0.0076,-0.0089,-0.0081,-0.0127,-0.0146,-0.0168,-0.0226,-0.0179,-0.0154,-0.0127,-0.0084,-0.0068,-0.0246,-0.0246,-0.0247,-0.0247,-0.0022,-0.0033,-0.0004,-0.0009,-0.0008,-0.0029,-0.0029,-0.006,-0.0114,-0.011,-0.0094,-0.0005,0.0042,0.0056,-0.0102,-0.0102,-0.0102,-0.0101,-0.0101,0.0044,0.0069,0.0062,0.0086,0.0084,0.01,0.0074,0.0039,0.0043,-0.002,0.0002,-0.0008,0.0078,-0.0095,-0.0097,-0.0097,-0.0098,-0.0098,-0.0099,0.0104,0.0117,0.0126,0.0164,0.0196,0.0179,0.024,0.0187,0.0125,0.0145,0.0174,0.0174,0.0045,0.0147,0.0147,0.0148,0.0148,0.0148,0.0149,0.0164,0.0176,0.0218,0.0243,0.0279,0.0326,0.0334,0.0354,0.0332,0.0278,0.0278,0.0079,0.0071,0.0059,0.0155,0.0154,0.0153,0.0153,0.0152,0.0239,0.0236,0.0303,0.0342,0.0424,0.0509,0.0525,0.0582,0.0566,0.0571,0.035,0.0343,0.0331,0.0317,0.0312,0.0467,0.0467,0.0467,0.0467,0.029,0.029,0.0383,0.0458,0.0557,0.0599,0.074,0.0725,0.063,0.0536,0.0532,0.0485,0.0472,0.0463,0.0445,0.044,0.0629,0.0629,0.0629,0.0343,0.0363,0.044,0.0499,0.061,0.0709,0.0808,0.0762,0.0623,0.0628,0.049,0.0492,0.0411,0.0396,0.0366,0.0344,0.0329,0,0]}],[{"header":{"parameterUnit":"m.s-1","parameterCategory":2,"la1":30.2992,"la2":30.254,"lo1":-89.0895,"lo2":-89.0443,"dy":0.0025,"dx":0.0025,"nx":19,"ny":19,"refTime":"2026-03-29T09:00:00:Z","depth":"4","parameterNumber":2,"parameterNumberName":"U-component_of_CURRENTS"},"data":[0,0,0,0.1531,0.1535,0.1684,0.1684,0.1816,0.1817,0,0,0,0,0,0,0,0,0,0,0,0.1484,0.1485,0.1531,0.1535,0.1684,0.1684,0.1816,0.1817,0,0,0,0,0,0,0,0,0,0,0,0.1483,0.1485,0.1486,0.1535,0.1684,0.1684,0.1816,0.1718,0,0,0,0,0,0,0,0,0,0,0.1581,0.1549,0.1484,0.1486,0.1536,0.1683,0.1685,0.1714,0.1724,0.1732,0,0.1764,0,0.1791,0.1825,0.1825,0,0,0,0.1536,0.1541,0.1577,0.1486,0.1538,0.1683,0.1617,0.1721,0.1732,0.1745,0.1766,0.1771,0.1793,0.1826,0.1826,0.1951,0.1951,0,0,0.1528,0.1513,0.1569,0.1584,0.1587,0.1612,0.1622,0.1728,0.1745,0.1766,0.1774,0.1795,0.1826,0.1827,0.195,0.1951,0,0,0,0.1503,0.1507,0.1542,0.1578,0.1609,0.1616,0.1627,0.1741,0.1752,0.1776,0.1797,0.1827,0.1828,0.195,0.1951,0.1971,0,0,0,0.1498,0.1493,0.1539,0.1532,0.1607,0.1686,0.1637,0.1745,0.1758,0.1796,0.1827,0.1829,0.1949,0.195,0.1969,0.1984,0,0,0,0.1475,0.1491,0.151,0.153,0.1594,0.1685,0.1703,0.1748,0.177,0.1825,0.183,0.1949,0.195,0.1967,0.1982,0.202,0,0,0,0.145,0.1475,0.151,0.1551,0.1592,0.1676,0.1703,0.1779,0.1828,0.1828,0.1949,0.1951,0.1967,0.198,0.2018,0.1772,0,0,0,0.1458,0.1476,0.1498,0.1533,0.16,0.1655,0.1738,0.1816,0.1848,0.1909,0.1913,0.197,0.1981,0.202,0.1851,0,0,0,0,0.1485,0.1503,0.1529,0.1586,0.1651,0.173,0.1807,0.1846,0.1932,0.1885,0.199,0.1998,0.2021,0.1872,0.1957,0.1957,0.1957,0.1956,0.1956,0.1461,0.1505,0.1552,0.162,0.1683,0.1792,0.1858,0.1931,0.1953,0.2,0.2029,0.2093,0.1938,0.2043,0.2043,0.2043,0.2043,0.2043,0.2043,0.1464,0.1486,0.1569,0.1633,0.1726,0.1813,0.1931,0.1974,0.2076,0.207,0.2092,0.1922,0.2046,0.2045,0.2045,0.2045,0.2044,0.2044,0.2044,0.1429,0.1445,0.1512,0.1613,0.1721,0.1836,0.1925,0.2026,0.2103,0.2141,0.2001,0.2121,0.2102,0.2163,0.2163,0.2163,0.2163,0.2163,0.2164,0.1359,0.1422,0.1478,0.1588,0.1658,0.177,0.1934,0.1994,0.2097,0.2012,0.2163,0.2134,0.213,0.2111,0.2167,0.2167,0.2166,0.2166,0.2166,0.13,0.1344,0.1404,0.1472,0.1602,0.1651,0.1831,0.1884,0.1933,0.1917,0.1938,0.1949,0.1923,0.1925,0.1897,0.1893,0.189,0.1887,0,0.125,0.1277,0.1349,0.141,0.146,0.1575,0.1573,0.1665,0.1761,0.17,0.1953,0.1976,0.1982,0.1952,0.1949,0.1915,0,0,0,0.1218,0.1245,0.1268,0.1341,0.1384,0.1436,0.1559,0.1534,0.1739,0.1712,0.1813,0.1832,0.2038,0.2179,0.2165,0.216,0.2129,0,0]},{"header":{"parameterUnit":"m.s-1","parameterCategory":2,"la1":30.2992,"la2":30.254,"lo1":-89.0895,"lo2":-89.0443,"dy":0.0025,"dx":0.0025,"nx":19,"ny":19,"refTime":"2026-03-29T09:00:00:Z","depth":"4","parameterNumber":3,"parameterNumberName":"V-component_of_CURRENTS"},"data":[0,0,0,0.0035,0.0035,0.0008,0.0008,-0.0031,-0.0031,0,0,0,0,0,0,0,0,0,0,0,0.0044,0.0044,0.0035,0.0035,0.0008,0.0008,-0.0031,-0.0031,0,0,0,0,0,0,0,0,0,0,0,0.0044,0.0044,0.0044,0.0035,0.0008,0.0008,-0.003,-0.0011,0,0,0,0,0,0,0,0,0,0,0.0015,0.0026,0.0044,0.0044,0.0035,0.0008,0.0008,-0.001,-0.0012,-0.0018,0,-0.0018,0,-0.0022,-0.0033,-0.0033,0,0,0,0.0028,0.0028,0.0022,0.0044,0.0034,0.0008,0.0018,-0.0011,-0.0014,-0.002,-0.0019,-0.002,-0.0023,-0.0033,-0.0033,-0.0034,-0.0034,0,0,0.003,0.0036,0.0024,0.0021,0.0032,0.0019,0.0018,-0.0013,-0.0014,-0.0019,-0.0021,-0.0024,-0.0033,-0.0034,-0.0034,-0.0034,0,0,0,0.0038,0.0037,0.0032,0.0022,0.0019,0.0019,0.0017,-0.0013,-0.0014,-0.0021,-0.0024,-0.0034,-0.0034,-0.0034,-0.0034,0.0011,0,0,0,0.0039,0.0043,0.0033,0.0036,0.002,0.0004,0.0017,-0.0012,-0.0015,-0.0024,-0.0034,-0.0034,-0.0034,-0.0034,0.0009,0.0045,0,0,0,0.0044,0.0043,0.0042,0.0036,0.0028,0.0004,0.0001,-0.0013,-0.0017,-0.0033,-0.0034,-0.0035,-0.0034,0.0008,0.0041,0.007,0,0,0,0.0049,0.0064,0.0042,0.0058,0.0028,0.0036,0.0001,-0.0003,-0.0013,-0.0034,-0.0034,-0.0034,0.0007,0.0039,0.0068,0.0081,0,0,0,0.0075,0.0067,0.0078,0.0058,0.0079,0.0038,0.0052,0.0019,-0.0008,-0.0027,-0.0027,0.001,0.0041,0.007,0.0112,0,0,0,0,0.0091,0.0098,0.0101,0.0104,0.0098,0.0092,0.0057,0.0042,0.0021,-0.0011,0.0008,0.0027,0.0043,0.0044,-0.0031,-0.0031,-0.0031,-0.0031,-0.0031,0.0131,0.0128,0.015,0.0146,0.0148,0.0125,0.0121,0.0092,0.0055,0.0053,0.0061,0.0114,0.0116,0.005,0.005,0.0051,0.0051,0.0051,0.0051,0.0172,0.0183,0.0182,0.0202,0.0193,0.0197,0.0175,0.015,0.0147,0.0105,0.0118,0.0089,0.0055,0.0054,0.0054,0.0053,0.0053,0.0053,0.0052,0.0195,0.0201,0.0212,0.0235,0.0253,0.0238,0.0273,0.024,0.0199,0.0213,0.0203,0.0151,0.015,0.0211,0.0211,0.0211,0.0211,0.0212,0.0212,0.0209,0.0223,0.0246,0.0268,0.0292,0.0322,0.0328,0.0336,0.0293,0.027,0.0227,0.0168,0.0163,0.0159,0.0216,0.0216,0.0215,0.0215,0.0214,0.0227,0.0233,0.0272,0.0299,0.0359,0.039,0.0404,0.0405,0.0412,0.0392,0.0296,0.0291,0.028,0.0272,0.0271,0.0364,0.0365,0.0365,0,0.0234,0.024,0.0292,0.0344,0.0406,0.043,0.0468,0.047,0.0413,0.0397,0.0397,0.0289,0.0285,0.027,0.0264,0.0263,0,0,0,0.0239,0.0258,0.0294,0.0348,0.0421,0.0459,0.0479,0.047,0.0419,0.0432,0.0375,0.0373,0.0307,0.023,0.02,0.0193,0.0186,0,0]}]]